Location: Louisville
(33.0010°N, 82.4110°W)
Time: 19:48:00
(UTC-05:00)

OTV 5 (USA 277) - Visible Passes

Search period start: 22 January 2019 00:00
Search period end: 01 February 2019 00:00
Orbit: 339 x 349 km, 54.5° (Epoch: 15 January)

Date Brightness Start Highest point End Pass type
(mag) Time Alt. Az. Time Alt. Az. Time Alt. Az.
23 Jan ? 06:46:27 10° SSW 06:49:04 31° SE 06:51:42 10° ENE visible
25 Jan ? 05:58:57 10° S 06:01:31 29° SE 06:04:06 10° ENE visible
26 Jan ? 06:23:39 25° WSW 06:25:05 52° NW 06:27:56 10° NNE visible
27 Jan ? 05:16:17 11° ENE 05:16:17 11° ENE 05:16:30 10° ENE visible
27 Jan ? 06:47:46 13° WNW 06:48:53 15° NW 06:50:41 10° N visible
28 Jan ? 05:40:01 13° NNE 05:40:01 13° NNE 05:40:23 10° NNE visible
